Time,TemperatureF,DewpointF,PressureIn,WindDirection,WindDirectionDegrees,WindSpeedMPH,WindSpeedGustMPH,Humidity,HourlyPrecipIn,Conditions,Clouds,dailyrainin,SolarRadiationWatts/m^2,SoftwareType,DateUTC
2013-05-20 00:03:00,53.8,53.8,29.98,West,265,2.3,2.3,100,0.00,CLR,,0.00,0.0,WeatherDisplay:10.37,2013-05-19 23:03:00,
2013-05-20 00:09:00,53.8,53.8,29.98,WSW,243,3.5,3.5,100,0.00,CLR,,0.00,0.0,WeatherDisplay:10.37,2013-05-19 23:09:00,
2013-05-20 00:14:00,53.8,53.8,29.98,NW,315,3.5,3.5,100,0.00,CLR,,0.00,0.0,WeatherDisplay:10.37,2013-05-19 23:14:00,
2013-05-20 00:19:00,53.8,53.8,29.97,NNW,332,2.3,2.3,100,0.00,CLR,,0.00,0.0,WeatherDisplay:10.37,2013-05-19 23:19:00,
2013-05-20 00:24:00,53.8,53.8,29.97,NNW,335,3.5,3.5,100,0.00,CLR,,0.00,0.0,WeatherDisplay:10.37,2013-05-19 23:24:00,
2013-05-20 00:29:00,53.9,53.9,29.97,NNW,342,1.2,1.2,100,0.00,CLR,,0.00,0.0,WeatherDisplay:10.37,2013-05-19 23:29:00,
2013-05-20 00:34:00,53.9,53.9,29.97,NNW,340,2.3,0.0,100,0.00,CLR,,0.00,0.0,WeatherDisplay:10.37,2013-05-19 23:34:00,
2013-05-20 00:39:00,53.9,53.9,29.97,NW,308,1.2,1.2,100,0.00,CLR,,0.00,0.0,WeatherDisplay:10.37,2013-05-19 23:39:00,
2013-05-20 00:45:00,53.9,53.9,29.97,NW,308,0.0,3.0,100,0.00,CLR,,0.00,0.0,WeatherDisplay:10.37,2013-05-19 23:45:00,
2013-05-20 00:50:00,53.9,53.9,29.97,SW,222,0.0,0.0,100,0.00,CLR,,0.00,0.0,WeatherDisplay:10.37,2013-05-19 23:50:00,
2013-05-20 00:55:00,53.9,53.9,29.97,NW,326,0.0,0.0,100,0.00,CLR,,0.00,0.0,WeatherDisplay:10.37,2013-05-19 23:55:00,
2013-05-20 01:00:00,53.8,53.8,29.96,North,357,1.2,1.2,100,0.00,CLR,,0.00,0.0,WeatherDisplay:10.37,2013-05-20 00:00:00,
2013-05-20 01:05:00,53.8,53.8,29.96,NNW,330,3.0,3.0,100,0.00,CLR,,0.00,0.0,WeatherDisplay:10.37,2013-05-20 00:05:00,
2013-05-20 01:10:00,53.8,53.8,29.96,NW,306,2.3,2.3,100,0.00,CLR,,0.00,0.0,WeatherDisplay:10.37,2013-05-20 00:10:00,
2013-05-20 01:15:00,53.8,53.8,29.96,NNW,333,2.3,2.3,100,0.00,CLR,,0.00,0.0,WeatherDisplay:10.37,2013-05-20 00:15:00,
2013-05-20 01:21:00,53.8,53.8,29.96,NNW,344,4.0,4.0,100,0.00,CLR,,0.00,0.0,WeatherDisplay:10.37,2013-05-20 00:21:00,
2013-05-20 01:26:00,53.8,53.8,29.96,NNW,346,3.5,3.5,100,0.00,CLR,,0.00,0.0,WeatherDisplay:10.37,2013-05-20 00:26:00,
2013-05-20 01:31:00,53.8,53.8,29.96,NW,326,3.0,3.0,100,0.00,CLR,,0.00,0.0,WeatherDisplay:10.37,2013-05-20 00:31:00,
2013-05-20 01:36:00,53.6,53.6,29.96,NW,320,1.2,1.2,100,0.00,CLR,,0.00,0.0,WeatherDisplay:10.37,2013-05-20 00:36:00,
2013-05-20 01:41:00,53.6,53.6,29.96,SW,234,2.0,2.0,100,0.00,CLR,,0.00,0.0,WeatherDisplay:10.37,2013-05-20 00:41:00,
2013-05-20 01:47:00,53.5,53.5,29.96,SW,230,3.0,3.0,100,0.00,CLR,,0.00,0.0,WeatherDisplay:10.37,2013-05-20 00:47:00,
2013-05-20 01:52:00,53.3,53.3,29.96,NNW,342,1.2,1.2,100,0.00,CLR,,0.00,0.0,WeatherDisplay:10.37,2013-05-20 00:52:00,
2013-05-20 01:57:00,53.3,53.3,29.96,NNW,333,0.0,0.0,100,0.00,CLR,,0.00,0.0,WeatherDisplay:10.37,2013-05-20 00:57:00,
2013-05-20 02:02:00,53.3,53.3,29.96,WSW,240,3.5,3.5,100,0.00,CLR,,0.00,0.0,WeatherDisplay:10.37,2013-05-20 01:02:00,
2013-05-20 02:07:00,53.3,53.3,29.96,WSW,240,1.2,1.2,100,0.00,CLR,,0.00,0.0,WeatherDisplay:10.37,2013-05-20 01:07:00,
2013-05-20 02:13:00,53.3,53.3,29.96,NNW,336,3.5,3.5,100,0.00,CLR,,0.00,0.0,WeatherDisplay:10.37,2013-05-20 01:13:00,
2013-05-20 02:18:00,53.3,53.3,29.96,North,349,2.3,2.3,100,0.00,CLR,,0.00,0.0,WeatherDisplay:10.37,2013-05-20 01:18:00,
2013-05-20 02:23:00,53.3,53.3,29.96,WSW,240,1.2,0.0,100,0.00,CLR,,0.00,0.0,WeatherDisplay:10.37,2013-05-20 01:23:00,
2013-05-20 02:28:00,53.3,53.3,29.96,WSW,240,2.3,2.3,100,0.00,CLR,,0.00,0.0,WeatherDisplay:10.37,2013-05-20 01:28:00,
2013-05-20 02:33:00,53.3,53.3,29.96,NNW,328,1.2,1.2,100,0.00,CLR,,0.00,0.0,WeatherDisplay:10.37,2013-05-20 01:33:00,
2013-05-20 02:38:00,53.3,53.3,29.96,NW,318,2.3,2.3,100,0.00,CLR,,0.00,0.0,WeatherDisplay:10.37,2013-05-20 01:38:00,
2013-05-20 02:43:00,53.3,53.3,29.96,NNW,335,0.0,0.0,100,0.00,CLR,,0.00,0.0,WeatherDisplay:10.37,2013-05-20 01:43:00,
2013-05-20 02:48:00,53.3,53.3,29.96,North,359,3.5,3.5,100,0.00,CLR,,0.00,0.0,WeatherDisplay:10.37,2013-05-20 01:48:00,
2013-05-20 02:53:00,53.2,53.2,29.96,North,0,1.0,1.0,100,0.00,CLR,,0.00,0.0,WeatherDisplay:10.37,2013-05-20 01:53:00,
2013-05-20 02:59:00,53.1,53.1,29.96,NNW,333,0.0,0.0,100,0.00,CLR,,0.00,0.0,WeatherDisplay:10.37,2013-05-20 01:59:00,
2013-05-20 03:04:00,53.1,53.1,29.96,NNW,330,0.0,0.0,100,0.00,CLR,,0.00,0.0,WeatherDisplay:10.37,2013-05-20 02:04:00,
2013-05-20 03:09:00,52.9,52.9,29.96,NW,323,0.0,0.0,100,0.00,CLR,,0.00,0.0,WeatherDisplay:10.37,2013-05-20 02:09:00,
2013-05-20 03:14:00,52.9,52.9,29.96,NW,316,3.5,3.5,100,0.00,CLR,,0.00,0.0,WeatherDisplay:10.37,2013-05-20 02:14:00,
2013-05-20 03:19:00,53.1,53.1,29.96,NW,308,1.2,1.2,100,0.00,CLR,,0.00,0.0,WeatherDisplay:10.37,2013-05-20 02:19:00,
2013-05-20 03:24:00,53.1,53.1,29.96,WSW,237,0.0,0.0,100,0.00,CLR,,0.00,0.0,WeatherDisplay:10.37,2013-05-20 02:24:00,
2013-05-20 03:29:00,53.1,53.1,29.96,SW,234,2.3,2.3,100,0.00,CLR,,0.00,0.0,WeatherDisplay:10.37,2013-05-20 02:29:00,
2013-05-20 03:34:00,53.2,53.2,29.96,WSW,240,1.2,0.0,100,0.00,CLR,,0.00,0.0,WeatherDisplay:10.37,2013-05-20 02:34:00,
2013-05-20 03:39:00,53.2,53.2,29.96,NW,311,0.0,0.3,100,0.00,CLR,,0.00,0.0,WeatherDisplay:10.37,2013-05-20 02:39:00,
2013-05-20 03:44:00,53.2,53.2,29.96,SW,236,2.3,2.3,100,0.00,CLR,,0.00,0.0,WeatherDisplay:10.37,2013-05-20 02:44:00,
2013-05-20 03:49:00,53.2,53.2,29.95,SW,230,1.2,1.2,100,0.00,CLR,,0.00,0.0,WeatherDisplay:10.37,2013-05-20 02:49:00,
2013-05-20 03:55:00,53.2,53.2,29.95,SW,217,0.0,0.0,100,0.00,CLR,,0.00,0.0,WeatherDisplay:10.37,2013-05-20 02:55:00,
2013-05-20 04:00:00,53.2,53.2,29.95,SW,229,0.0,3.0,100,0.00,CLR,,0.00,0.0,WeatherDisplay:10.37,2013-05-20 03:00:00,
2013-05-20 04:05:00,53.2,53.2,29.95,SW,223,1.2,0.0,100,0.00,CLR,,0.00,0.0,WeatherDisplay:10.37,2013-05-20 03:05:00,
2013-05-20 04:10:00,53.2,53.2,29.95,WSW,247,0.0,0.0,100,0.00,CLR,,0.00,0.0,WeatherDisplay:10.37,2013-05-20 03:10:00,
2013-05-20 04:15:00,53.2,53.2,29.95,SW,223,0.0,0.0,100,0.00,CLR,,0.00,0.0,WeatherDisplay:10.37,2013-05-20 03:15:00,
2013-05-20 04:20:00,53.1,53.1,29.94,SW,224,0.0,0.0,100,0.00,CLR,,0.00,0.0,WeatherDisplay:10.37,2013-05-20 03:20:00,
2013-05-20 04:25:00,53.1,53.1,29.94,SW,224,0.0,0.0,100,0.00,CLR,,0.00,0.0,WeatherDisplay:10.37,2013-05-20 03:25:00,
2013-05-20 04:30:00,52.9,52.9,29.94,SW,224,0.0,0.0,100,0.00,OVC,,0.00,0.0,WeatherDisplay:10.37,2013-05-20 03:30:00,
2013-05-20 04:35:00,52.8,52.8,29.94,NNW,330,2.3,2.3,100,0.00,OVC,,0.00,0.0,WeatherDisplay:10.37,2013-05-20 03:35:00,
2013-05-20 04:40:00,52.8,52.8,29.94,North,354,0.0,0.0,100,0.00,OVC,,0.00,0.0,WeatherDisplay:10.37,2013-05-20 03:40:00,
2013-05-20 04:45:00,52.6,52.6,29.95,NNW,332,0.0,0.0,100,0.00,OVC,,0.00,0.0,WeatherDisplay:10.37,2013-05-20 03:45:00,
2013-05-20 04:50:00,52.6,52.6,29.95,SW,217,2.3,2.3,100,0.00,OVC,,0.00,0.0,WeatherDisplay:10.37,2013-05-20 03:50:00,
2013-05-20 04:55:00,52.6,52.6,29.95,SW,224,1.2,1.2,100,0.00,OVC,,0.00,5.0,WeatherDisplay:10.37,2013-05-20 03:55:00,
2013-05-20 05:01:00,52.6,52.6,29.94,NW,313,2.3,2.3,100,0.00,OVC,,0.00,5.0,WeatherDisplay:10.37,2013-05-20 04:01:00,
2013-05-20 05:02:00,52.6,52.6,29.94,NW,315,0.0,0.0,100,0.00,OVC,,0.00,7.0,WeatherDisplay:10.37,2013-05-20 04:02:00,
2013-05-20 05:07:00,52.6,52.6,29.94,NW,308,0.0,0.0,100,0.00,OVC,,0.00,7.0,WeatherDisplay:10.37,2013-05-20 04:07:00,
2013-05-20 05:12:00,52.6,52.6,29.94,NW,312,0.0,0.1,100,0.00,OVC,,0.00,9.0,WeatherDisplay:10.37,2013-05-20 04:12:00,
2013-05-20 05:17:00,52.5,52.5,29.94,NW,318,1.2,0.0,100,0.00,OVC,,0.00,11.0,WeatherDisplay:10.37,2013-05-20 04:17:00,
2013-05-20 05:22:00,52.5,52.5,29.94,NW,306,2.3,0.0,100,0.00,OVC,,0.00,14.0,WeatherDisplay:10.37,2013-05-20 04:22:00,
2013-05-20 05:27:00,52.5,52.5,29.94,WSW,237,2.0,2.0,100,0.00,OVC,,0.00,18.0,WeatherDisplay:10.37,2013-05-20 04:27:00,
2013-05-20 05:32:00,52.3,52.3,29.94,WSW,240,2.3,2.3,100,0.00,OVC,,0.00,19.0,WeatherDisplay:10.37,2013-05-20 04:32:00,
2013-05-20 05:37:00,52.3,52.3,29.94,North,359,4.0,4.0,100,0.00,CLR,,0.00,21.0,WeatherDisplay:10.37,2013-05-20 04:37:00,
2013-05-20 05:42:00,52.3,52.3,29.94,SW,224,1.0,1.0,100,0.00,CLR,,0.00,25.0,WeatherDisplay:10.37,2013-05-20 04:42:00,
2013-05-20 05:48:00,52.2,52.2,29.94,SW,233,1.2,1.2,100,0.00,CLR,,0.00,25.0,WeatherDisplay:10.37,2013-05-20 04:48:00,
2013-05-20 05:53:00,52.2,52.2,29.94,WSW,237,2.3,2.3,100,0.00,FEW,,0.00,19.0,WeatherDisplay:10.37,2013-05-20 04:53:00,
2013-05-20 05:58:00,52.2,52.2,29.94,WSW,241,1.2,0.0,100,0.00,SCT,,0.00,18.0,WeatherDisplay:10.37,2013-05-20 04:58:00,
2013-05-20 06:03:00,52.2,52.2,29.94,WSW,239,1.2,1.2,100,0.00,SCT,,0.00,25.0,WeatherDisplay:10.37,2013-05-20 05:03:00,
2013-05-20 06:08:00,52.3,52.3,29.94,NNW,335,1.2,1.2,100,0.00,SCT,,0.00,25.0,WeatherDisplay:10.37,2013-05-20 05:08:00,
2013-05-20 06:13:00,52.3,52.3,29.94,NNW,336,0.0,0.0,100,0.00,BKN,,0.00,26.0,WeatherDisplay:10.37,2013-05-20 05:13:00,
2013-05-20 06:18:00,52.5,52.5,29.94,NNW,339,0.0,0.0,100,0.00,BKN,,0.00,26.0,WeatherDisplay:10.37,2013-05-20 05:18:00,
2013-05-20 06:23:00,52.6,52.6,29.94,NNW,340,0.0,0.0,100,0.00,BKN,,0.00,32.0,WeatherDisplay:10.37,2013-05-20 05:23:00,
2013-05-20 06:28:00,52.8,52.8,29.94,WNW,302,3.5,3.5,100,0.00,OVC,,0.00,28.0,WeatherDisplay:10.37,2013-05-20 05:28:00,
2013-05-20 06:33:00,52.8,52.8,29.94,NW,320,1.0,1.0,100,0.00,OVC,,0.00,37.0,WeatherDisplay:10.37,2013-05-20 05:33:00,
2013-05-20 06:38:00,52.9,52.9,29.95,NW,316,1.2,1.2,100,0.00,OVC,,0.00,32.0,WeatherDisplay:10.37,2013-05-20 05:38:00,
2013-05-20 06:43:00,52.9,52.9,29.95,WNW,285,0.0,0.0,100,0.00,OVC,,0.00,26.0,WeatherDisplay:10.37,2013-05-20 05:43:00,
2013-05-20 06:48:00,53.1,53.1,29.95,NW,322,1.2,1.2,100,0.00,OVC,,0.00,35.0,WeatherDisplay:10.37,2013-05-20 05:48:00,
2013-05-20 06:53:00,53.1,53.1,29.95,NW,306,0.0,0.0,100,0.00,OVC,,0.00,37.0,WeatherDisplay:10.37,2013-05-20 05:53:00,
2013-05-20 06:58:00,53.2,53.2,29.95,NW,304,0.0,0.1,100,0.00,OVC,,0.00,49.0,WeatherDisplay:10.37,2013-05-20 05:58:00,
2013-05-20 07:04:00,53.3,53.3,29.95,NW,322,1.2,1.2,100,0.00,BKN,,0.00,55.0,WeatherDisplay:10.37,2013-05-20 06:04:00,
2013-05-20 07:09:00,53.5,53.5,29.95,NW,305,1.2,0.0,100,0.00,OVC,,0.00,55.0,WeatherDisplay:10.37,2013-05-20 06:09:00,
2013-05-20 07:14:00,53.6,53.6,29.95,NW,305,1.0,1.0,100,0.00,OVC,,0.00,58.0,WeatherDisplay:10.37,2013-05-20 06:14:00,
2013-05-20 07:19:00,53.6,53.6,29.95,NW,315,0.0,0.0,100,0.00,OVC,,0.00,69.0,WeatherDisplay:10.37,2013-05-20 06:19:00,
2013-05-20 07:24:00,53.8,53.8,29.94,NW,316,1.2,0.0,100,0.00,BKN,,0.00,81.0,WeatherDisplay:10.37,2013-05-20 06:24:00,
2013-05-20 07:29:00,53.9,53.9,29.95,NNW,328,1.2,0.0,100,0.00,BKN,,0.00,90.0,WeatherDisplay:10.37,2013-05-20 06:29:00,
2013-05-20 07:35:00,54.2,54.2,29.95,NW,323,1.2,1.2,100,0.00,BKN,,0.00,109.0,WeatherDisplay:10.37,2013-05-20 06:35:00,
2013-05-20 07:40:00,54.4,54.4,29.94,NW,312,0.0,0.0,100,0.00,SCT,,0.00,139.0,WeatherDisplay:10.37,2013-05-20 06:40:00,
2013-05-20 07:45:00,54.5,54.5,29.95,NW,319,0.0,0.0,100,0.00,SCT,,0.00,125.0,WeatherDisplay:10.37,2013-05-20 06:45:00,
2013-05-20 07:50:00,54.7,54.7,29.95,WNW,294,3.0,3.0,100,0.00,OVC,,0.00,84.0,WeatherDisplay:10.37,2013-05-20 06:50:00,
2013-05-20 07:55:00,54.7,54.7,29.95,WSW,246,0.0,0.0,100,0.00,BKN,,0.00,107.0,WeatherDisplay:10.37,2013-05-20 06:55:00,
2013-05-20 08:00:00,54.7,54.7,29.95,WSW,240,1.2,1.2,100,0.00,BKN,,0.00,134.0,WeatherDisplay:10.37,2013-05-20 07:00:00,
2013-05-20 08:05:00,54.8,54.8,29.95,WSW,239,1.2,1.2,100,0.00,SCT,,0.00,188.0,WeatherDisplay:10.37,2013-05-20 07:05:00,
2013-05-20 08:10:00,55.3,55.3,29.94,WNW,298,4.6,4.6,100,0.00,FEW,,0.00,236.0,WeatherDisplay:10.37,2013-05-20 07:10:00,
2013-05-20 08:16:00,55.7,55.7,29.95,NW,304,1.2,0.0,100,0.00,CLR,,0.00,308.0,WeatherDisplay:10.37,2013-05-20 07:16:00,
2013-05-20 08:21:00,56.0,56.0,29.95,NW,313,1.2,1.2,100,0.00,SCT,,0.00,209.0,WeatherDisplay:10.37,2013-05-20 07:21:00,
2013-05-20 08:26:00,56.3,56.3,29.95,NW,306,2.3,2.3,100,0.00,BKN,,0.00,153.0,WeatherDisplay:10.37,2013-05-20 07:26:00,
2013-05-20 08:31:00,56.2,56.2,29.96,NW,313,5.8,5.8,100,0.00,OVC,,0.00,128.0,WeatherDisplay:10.37,2013-05-20 07:31:00,
2013-05-20 08:36:00,56.2,56.2,29.95,NNW,329,1.2,1.2,100,0.00,SCT,,0.00,252.0,WeatherDisplay:10.37,2013-05-20 07:36:00,
2013-05-20 08:41:00,56.2,56.2,29.96,NW,322,5.8,5.8,100,0.00,BKN,,0.00,144.0,WeatherDisplay:10.37,2013-05-20 07:41:00,
2013-05-20 08:46:00,56.3,56.3,29.96,SW,236,1.0,1.0,100,0.00,BKN,,0.00,165.0,WeatherDisplay:10.37,2013-05-20 07:46:00,
2013-05-20 08:52:00,56.3,56.3,29.96,NW,316,1.2,1.2,100,0.00,BKN,,0.00,167.0,WeatherDisplay:10.37,2013-05-20 07:52:00,
2013-05-20 08:57:00,56.3,56.3,29.96,WNW,296,2.3,2.3,100,0.00,BKN,,0.00,157.0,WeatherDisplay:10.37,2013-05-20 07:57:00,
2013-05-20 09:02:00,56.3,56.3,29.96,North,352,3.0,3.0,100,0.00,BKN,,0.00,208.0,WeatherDisplay:10.37,2013-05-20 08:02:00,
2013-05-20 09:07:00,56.6,56.3,29.96,North,0,0.0,0.1,99,0.00,SCT,,0.00,257.0,WeatherDisplay:10.37,2013-05-20 08:07:00,
2013-05-20 09:12:00,57.0,57.0,29.96,North,0,3.0,3.0,100,0.00,SCT,,0.00,308.0,WeatherDisplay:10.37,2013-05-20 08:12:00,
2013-05-20 09:17:00,57.5,57.2,29.95,North,349,3.5,3.5,99,0.00,SCT,,0.00,345.0,WeatherDisplay:10.37,2013-05-20 08:17:00,
2013-05-20 09:22:00,58.0,57.4,29.95,NNW,337,0.0,0.0,98,0.00,SCT,,0.00,289.0,WeatherDisplay:10.37,2013-05-20 08:22:00,
2013-05-20 09:27:00,58.3,57.5,29.95,NNW,342,0.0,0.0,97,0.00,SCT,,0.00,255.0,WeatherDisplay:10.37,2013-05-20 08:27:00,
2013-05-20 09:33:00,58.4,57.0,29.95,West,280,0.0,0.0,95,0.00,SCT,,0.00,278.0,WeatherDisplay:10.37,2013-05-20 08:33:00,
2013-05-20 09:38:00,58.4,57.0,29.95,West,263,0.0,0.0,95,0.00,BKN,,0.00,260.0,WeatherDisplay:10.37,2013-05-20 08:38:00,
2013-05-20 09:43:00,58.7,57.3,29.95,SW,234,0.0,0.0,95,0.00,SCT,,0.00,297.0,WeatherDisplay:10.37,2013-05-20 08:43:00,
2013-05-20 09:48:00,59.0,57.3,29.95,North,0,2.3,2.3,94,0.00,SCT,,0.00,345.0,WeatherDisplay:10.37,2013-05-20 08:48:00,
2013-05-20 09:53:00,59.6,58.2,29.95,NNW,340,2.3,2.3,95,0.00,FEW,,0.00,454.0,WeatherDisplay:10.37,2013-05-20 08:53:00,
2013-05-20 09:58:00,60.5,58.8,29.95,North,0,3.5,3.5,94,0.00,CLR,,0.00,547.0,WeatherDisplay:10.37,2013-05-20 08:58:00,
2013-05-20 10:03:00,60.9,58.6,29.95,WSW,239,0.0,0.0,92,0.00,FEW,,0.00,470.0,WeatherDisplay:10.37,2013-05-20 09:03:00,
2013-05-20 10:08:00,62.0,59.6,29.95,SW,232,5.8,5.8,92,0.00,CLR,,0.00,621.0,WeatherDisplay:10.37,2013-05-20 09:08:00,
2013-05-20 10:13:00,62.0,59.3,29.95,WSW,257,1.2,1.2,91,0.00,SCT,,0.00,419.0,WeatherDisplay:10.37,2013-05-20 09:13:00,
2013-05-20 10:19:00,62.4,59.4,29.95,NW,319,1.2,0.0,90,0.00,CLR,,0.00,676.0,WeatherDisplay:10.37,2013-05-20 09:19:00,
2013-05-20 10:24:00,62.4,58.8,29.95,NW,304,3.5,3.5,88,0.00,SCT,,0.00,368.0,WeatherDisplay:10.37,2013-05-20 09:24:00,
2013-05-20 10:29:00,62.6,59.3,29.95,NNW,339,0.0,0.0,89,0.00,BKN,,0.00,329.0,WeatherDisplay:10.37,2013-05-20 09:29:00,
2013-05-20 10:34:00,62.9,59.3,29.95,NW,320,4.0,4.0,88,0.00,SCT,,0.00,377.0,WeatherDisplay:10.37,2013-05-20 09:34:00,
2013-05-20 10:39:00,62.9,59.6,29.95,NNW,329,4.6,4.6,89,0.00,BKN,,0.00,264.0,WeatherDisplay:10.37,2013-05-20 09:39:00,
2013-05-20 10:44:00,62.7,59.1,29.95,North,349,5.0,5.0,88,0.00,OVC,,0.00,171.0,WeatherDisplay:10.37,2013-05-20 09:44:00,
2013-05-20 10:49:00,62.4,59.1,29.95,NNW,347,5.0,5.0,89,0.00,OVC,,0.00,188.0,WeatherDisplay:10.37,2013-05-20 09:49:00,
2013-05-20 10:54:00,62.3,59.0,29.95,NNW,342,5.8,5.8,89,0.00,OVC,,0.00,232.0,WeatherDisplay:10.37,2013-05-20 09:54:00,
2013-05-20 10:59:00,62.1,58.8,29.95,NNW,336,2.3,2.3,89,0.00,BKN,,0.00,303.0,WeatherDisplay:10.37,2013-05-20 09:59:00,
2013-05-20 11:04:00,62.4,59.1,29.95,NNW,339,2.3,2.3,89,0.00,BKN,,0.00,405.0,WeatherDisplay:10.37,2013-05-20 10:04:00,
2013-05-20 11:09:00,62.9,59.9,29.95,NNW,340,4.0,4.0,90,0.00,BKN,,0.00,326.0,WeatherDisplay:10.37,2013-05-20 10:09:00,
2013-05-20 11:14:00,62.9,59.3,29.95,NNW,342,0.0,0.0,88,0.00,BKN,,0.00,364.0,WeatherDisplay:10.37,2013-05-20 10:14:00,
2013-05-20 11:19:00,63.2,59.6,29.95,NW,323,6.0,6.0,88,0.00,BKN,,0.00,373.0,WeatherDisplay:10.37,2013-05-20 10:19:00,
2013-05-20 11:25:00,63.7,60.1,29.95,NW,326,3.5,3.5,88,0.00,SCT,,0.00,443.0,WeatherDisplay:10.37,2013-05-20 10:25:00,
2013-05-20 11:30:00,63.9,59.6,29.95,NNW,330,0.0,6.0,86,0.00,SCT,,0.00,565.0,WeatherDisplay:10.37,2013-05-20 10:30:00,
2013-05-20 11:35:00,64.5,60.5,29.94,NW,322,6.9,6.9,87,0.00,BKN,,0.00,429.0,WeatherDisplay:10.37,2013-05-20 10:35:00,
2013-05-20 11:40:00,64.5,60.2,29.94,NW,326,3.5,0.0,86,0.00,SCT,,0.00,442.0,WeatherDisplay:10.37,2013-05-20 10:40:00,
2013-05-20 11:45:00,65.2,61.2,29.94,North,352,1.2,1.2,87,0.00,SCT,,0.00,456.0,WeatherDisplay:10.37,2013-05-20 10:45:00,
2013-05-20 11:50:00,65.6,61.0,29.94,North,353,0.0,0.0,85,0.00,SCT,,0.00,405.0,WeatherDisplay:10.37,2013-05-20 10:50:00,
2013-05-20 11:55:00,66.0,61.4,29.94,West,263,3.5,3.5,85,0.00,BKN,,0.00,431.0,WeatherDisplay:10.37,2013-05-20 10:55:00,
2013-05-20 12:00:00,65.6,61.0,29.94,NW,325,6.9,6.9,85,0.00,SCT,,0.00,470.0,WeatherDisplay:10.37,2013-05-20 11:00:00,
2013-05-20 12:06:00,65.5,60.2,29.94,North,356,3.5,3.5,83,0.00,BKN,,0.00,341.0,WeatherDisplay:10.37,2013-05-20 11:06:00,
2013-05-20 12:11:00,66.1,61.5,29.94,NNW,344,5.8,5.8,85,0.00,CLR,,0.00,947.0,WeatherDisplay:10.37,2013-05-20 11:11:00,
2013-05-20 12:16:00,66.3,61.3,29.94,NW,320,2.3,2.3,84,0.00,BKN,,0.00,348.0,WeatherDisplay:10.37,2013-05-20 11:16:00,
2013-05-20 12:21:00,66.1,60.8,29.94,NNW,337,3.5,3.5,83,0.00,BKN,,0.00,396.0,WeatherDisplay:10.37,2013-05-20 11:21:00,
2013-05-20 12:26:00,66.3,61.7,29.94,NW,319,3.0,3.0,85,0.00,BKN,,0.00,380.0,WeatherDisplay:10.37,2013-05-20 11:26:00,
2013-05-20 12:31:00,66.3,61.7,29.94,NNW,344,3.5,3.5,85,0.00,BKN,,0.00,604.0,WeatherDisplay:10.37,2013-05-20 11:31:00,
2013-05-20 12:36:00,66.8,62.5,29.94,NNW,346,3.5,3.5,86,0.00,BKN,,0.00,552.0,WeatherDisplay:10.37,2013-05-20 11:36:00,
2013-05-20 12:42:00,67.1,62.1,29.94,North,352,3.5,3.5,84,0.00,SCT,,0.00,496.0,WeatherDisplay:10.37,2013-05-20 11:42:00,
2013-05-20 12:47:00,67.1,61.8,29.94,NNW,333,3.5,3.5,83,0.00,BKN,,0.00,373.0,WeatherDisplay:10.37,2013-05-20 11:47:00,
2013-05-20 12:52:00,66.8,61.1,29.94,NW,313,5.8,5.8,82,0.00,BKN,,0.00,354.0,WeatherDisplay:10.37,2013-05-20 11:52:00,
2013-05-20 12:57:00,66.8,61.5,29.94,NNW,332,5.8,5.8,83,0.00,OVC,,0.00,308.0,WeatherDisplay:10.37,2013-05-20 11:57:00,
2013-05-20 13:02:00,66.9,61.9,29.94,North,349,6.0,6.0,84,0.00,OVC,,0.00,391.0,WeatherDisplay:10.37,2013-05-20 12:02:00,
2013-05-20 13:07:00,67.3,62.0,29.94,NNW,347,4.0,4.0,83,0.00,BKN,,0.00,473.0,WeatherDisplay:10.37,2013-05-20 12:07:00,
2013-05-20 13:12:00,67.8,62.4,29.94,North,357,4.6,4.6,83,0.00,BKN,,0.00,422.0,WeatherDisplay:10.37,2013-05-20 12:12:00,
2013-05-20 13:17:00,67.9,61.5,29.94,NNW,344,5.8,5.8,80,0.00,BKN,,0.00,318.0,WeatherDisplay:10.37,2013-05-20 12:17:00,
2013-05-20 13:22:00,67.6,61.2,29.94,NW,311,0.0,0.3,80,0.00,OVC,,0.00,294.0,WeatherDisplay:10.37,2013-05-20 12:22:00,
2013-05-20 13:28:00,67.8,61.4,29.94,NNW,339,6.9,6.9,80,0.00,OVC,,0.00,220.0,WeatherDisplay:10.37,2013-05-20 12:28:00,
2013-05-20 13:33:00,67.6,61.6,29.94,NNW,336,5.8,5.8,81,0.00,OVC,,0.00,209.0,WeatherDisplay:10.37,2013-05-20 12:33:00,
2013-05-20 13:38:00,67.3,62.0,29.94,NW,316,6.9,6.9,83,0.00,OVC,,0.00,215.0,WeatherDisplay:10.37,2013-05-20 12:38:00,
2013-05-20 13:43:00,66.6,61.9,29.94,NW,322,4.6,4.6,85,0.00,BKN,,0.00,399.0,WeatherDisplay:10.37,2013-05-20 12:43:00,
2013-05-20 13:48:00,67.1,63.1,29.93,NW,308,6.9,6.9,87,0.00,BKN,,0.00,433.0,WeatherDisplay:10.37,2013-05-20 12:48:00,
2013-05-20 13:53:00,68.3,63.9,29.93,NNW,346,4.6,4.6,86,0.00,CLR,,0.00,961.0,WeatherDisplay:10.37,2013-05-20 12:53:00,
2013-05-20 13:58:00,68.6,63.6,29.93,North,0,4.6,4.6,84,0.00,OVC,,0.00,333.0,WeatherDisplay:10.37,2013-05-20 12:58:00,
2013-05-20 14:03:00,68.4,63.0,29.93,NW,306,2.3,2.3,83,0.00,OVC,,0.00,340.0,WeatherDisplay:10.37,2013-05-20 13:03:00,
2013-05-20 14:08:00,69.6,63.5,29.93,NW,319,6.9,6.9,81,0.00,CLR,,0.00,873.0,WeatherDisplay:10.37,2013-05-20 13:08:00,
2013-05-20 14:13:00,69.8,64.1,29.93,NNW,346,4.6,4.6,82,0.00,OVC,,0.00,340.0,WeatherDisplay:10.37,2013-05-20 13:13:00,
2013-05-20 14:19:00,69.4,63.3,29.93,NNW,346,3.5,3.5,81,0.00,SCT,,0.00,674.0,WeatherDisplay:10.37,2013-05-20 13:19:00,
2013-05-20 14:24:00,69.6,63.9,29.93,SW,232,8.1,8.1,82,0.00,BKN,,0.00,401.0,WeatherDisplay:10.37,2013-05-20 13:24:00,
2013-05-20 14:29:00,69.3,63.2,29.93,SW,230,3.5,3.5,81,0.00,OVC,,0.00,341.0,WeatherDisplay:10.37,2013-05-20 13:29:00,
2013-05-20 14:34:00,69.4,63.7,29.93,NNW,329,3.5,3.5,82,0.00,BKN,,0.00,385.0,WeatherDisplay:10.37,2013-05-20 13:34:00,
2013-05-20 14:39:00,69.4,63.0,29.93,NNW,336,4.6,4.6,80,0.00,OVC,,0.00,331.0,WeatherDisplay:10.37,2013-05-20 13:39:00,
2013-05-20 14:44:00,69.1,61.6,29.93,North,356,6.9,6.9,77,0.00,OVC,,0.00,329.0,WeatherDisplay:10.37,2013-05-20 13:44:00,
2013-05-20 14:50:00,70.3,62.4,29.93,NNW,337,8.1,8.1,76,0.00,CLR,,0.00,838.0,WeatherDisplay:10.37,2013-05-20 13:50:00,
2013-05-20 14:55:00,70.8,62.1,29.93,NNW,339,7.0,7.0,74,0.00,OVC,,0.00,320.0,WeatherDisplay:10.37,2013-05-20 13:55:00,
2013-05-20 15:00:00,70.4,61.3,29.93,NW,322,6.0,12.0,73,0.00,BKN,,0.00,375.0,WeatherDisplay:10.37,2013-05-20 14:00:00,
2013-05-20 15:05:00,69.3,62.9,29.94,North,359,8.1,8.1,80,0.00,OVC,,0.00,310.0,WeatherDisplay:10.37,2013-05-20 14:05:00,
2013-05-20 15:10:00,67.6,61.9,29.94,North,0,8.1,8.1,82,0.00,OVC,,0.00,276.0,WeatherDisplay:10.37,2013-05-20 14:10:00,
2013-05-20 15:15:00,66.8,61.5,29.94,WSW,240,10.4,10.4,83,0.00,OVC,,0.00,290.0,WeatherDisplay:10.37,2013-05-20 14:15:00,
2013-05-20 15:21:00,66.4,61.4,29.94,SW,224,6.9,6.9,84,0.00,OVC,,0.00,283.0,WeatherDisplay:10.37,2013-05-20 14:21:00,
2013-05-20 15:26:00,66.4,61.4,29.94,NW,304,3.5,3.5,84,0.00,OVC,,0.00,289.0,WeatherDisplay:10.37,2013-05-20 14:26:00,
2013-05-20 15:31:00,66.8,62.1,29.93,North,350,2.3,2.3,85,0.00,OVC,,0.00,303.0,WeatherDisplay:10.37,2013-05-20 14:31:00,
2013-05-20 15:36:00,67.1,61.4,29.93,North,0,5.8,5.8,82,0.00,OVC,,0.00,296.0,WeatherDisplay:10.37,2013-05-20 14:36:00,
2013-05-20 15:42:00,67.4,61.0,29.93,NNW,333,3.5,3.5,80,0.00,OVC,,0.00,301.0,WeatherDisplay:10.37,2013-05-20 14:42:00,
2013-05-20 15:47:00,67.8,60.7,29.93,North,354,6.9,6.9,78,0.00,BKN,,0.00,417.0,WeatherDisplay:10.37,2013-05-20 14:47:00,
2013-05-20 15:52:00,68.4,60.2,29.93,NNW,344,8.1,8.1,75,0.00,BKN,,0.00,424.0,WeatherDisplay:10.37,2013-05-20 14:52:00,
2013-05-20 15:57:00,68.6,60.0,29.93,NNW,337,10.4,10.4,74,0.00,BKN,,0.00,415.0,WeatherDisplay:10.37,2013-05-20 14:57:00,
2013-05-20 16:02:00,69.9,62.0,29.93,NW,322,7.0,7.0,76,0.00,CLR,,0.00,727.0,WeatherDisplay:10.37,2013-05-20 15:02:00,
2013-05-20 16:07:00,70.8,61.7,29.93,North,349,8.1,8.1,73,0.00,FEW,,0.00,648.0,WeatherDisplay:10.37,2013-05-20 15:07:00,
2013-05-20 16:12:00,70.9,61.8,29.92,NW,323,6.9,6.9,73,0.00,FEW,,0.00,633.0,WeatherDisplay:10.37,2013-05-20 15:12:00,
2013-05-20 16:17:00,71.1,61.2,29.92,NNW,347,6.9,6.9,71,0.00,FEW,,0.00,621.0,WeatherDisplay:10.37,2013-05-20 15:17:00,
2013-05-20 16:22:00,71.5,61.2,29.92,WSW,240,8.1,8.1,70,0.00,FEW,,0.00,621.0,WeatherDisplay:10.37,2013-05-20 15:22:00,
2013-05-20 16:27:00,71.6,61.7,29.92,NW,322,6.0,6.0,71,0.00,FEW,,0.00,605.0,WeatherDisplay:10.37,2013-05-20 15:27:00,
2013-05-20 16:33:00,71.5,60.8,29.92,NNW,346,10.4,10.4,69,0.00,FEW,,0.00,591.0,WeatherDisplay:10.37,2013-05-20 15:33:00,
2013-05-20 16:38:00,71.5,61.6,29.92,North,352,8.1,8.1,71,0.00,FEW,,0.00,581.0,WeatherDisplay:10.37,2013-05-20 15:38:00,
2013-05-20 16:43:00,71.5,62.0,29.92,North,0,6.0,6.0,72,0.00,FEW,,0.00,581.0,WeatherDisplay:10.37,2013-05-20 15:43:00,
2013-05-20 16:48:00,71.5,61.2,29.92,North,350,6.9,6.9,70,0.00,FEW,,0.00,565.0,WeatherDisplay:10.37,2013-05-20 15:48:00,
2013-05-20 16:54:00,71.6,60.5,29.92,NW,325,5.8,5.8,68,0.00,FEW,,0.00,558.0,WeatherDisplay:10.37,2013-05-20 15:54:00,
2013-05-20 16:59:00,71.8,61.5,29.92,NNW,346,8.1,8.1,70,0.00,FEW,,0.00,523.0,WeatherDisplay:10.37,2013-05-20 15:59:00,
2013-05-20 17:04:00,71.8,62.3,29.92,SW,224,6.0,6.0,72,0.00,FEW,,0.00,537.0,WeatherDisplay:10.37,2013-05-20 16:04:00,
2013-05-20 17:09:00,70.9,61.8,29.92,NW,325,7.0,7.0,73,0.00,FEW,,0.00,528.0,WeatherDisplay:10.37,2013-05-20 16:09:00,
2013-05-20 17:14:00,69.8,61.1,29.92,NNW,332,5.8,5.8,74,0.00,FEW,,0.00,517.0,WeatherDisplay:10.37,2013-05-20 16:14:00,
2013-05-20 17:20:00,69.6,60.9,29.92,NNW,332,3.5,3.5,74,0.00,FEW,,0.00,503.0,WeatherDisplay:10.37,2013-05-20 16:20:00,
2013-05-20 17:25:00,69.1,60.5,29.92,NNW,337,6.0,6.0,74,0.00,FEW,,0.00,489.0,WeatherDisplay:10.37,2013-05-20 16:25:00,
2013-05-20 17:30:00,68.6,60.4,29.92,WSW,257,5.8,5.8,75,0.00,FEW,,0.00,475.0,WeatherDisplay:10.37,2013-05-20 16:30:00,
2013-05-20 17:35:00,68.4,60.2,29.93,South,189,6.9,6.9,75,0.00,FEW,,0.00,463.0,WeatherDisplay:10.37,2013-05-20 16:35:00,
2013-05-20 17:40:00,68.1,60.2,29.93,NNW,330,3.5,3.5,76,0.00,FEW,,0.00,452.0,WeatherDisplay:10.37,2013-05-20 16:40:00,
2013-05-20 17:45:00,67.8,60.3,29.93,NW,312,4.6,4.6,77,0.00,FEW,,0.00,438.0,WeatherDisplay:10.37,2013-05-20 16:45:00,
2013-05-20 17:51:00,67.9,60.1,29.93,NW,318,11.5,11.5,76,0.00,FEW,,0.00,445.0,WeatherDisplay:10.37,2013-05-20 16:51:00,
2013-05-20 17:56:00,67.6,59.8,29.93,NNW,330,6.9,6.9,76,0.00,FEW,,0.00,422.0,WeatherDisplay:10.37,2013-05-20 16:56:00,
2013-05-20 18:01:00,67.1,58.9,29.93,NW,315,5.8,5.8,75,0.00,FEW,,0.00,406.0,WeatherDisplay:10.37,2013-05-20 17:01:00,
2013-05-20 18:06:00,66.9,58.7,29.93,NW,315,9.2,9.2,75,0.00,FEW,,0.00,396.0,WeatherDisplay:10.37,2013-05-20 17:06:00,
2013-05-20 18:11:00,66.9,59.5,29.93,NNW,342,7.0,7.0,77,0.00,FEW,,0.00,380.0,WeatherDisplay:10.37,2013-05-20 17:11:00,
2013-05-20 18:16:00,66.9,59.5,29.93,NNW,329,4.6,4.6,77,0.00,FEW,,0.00,366.0,WeatherDisplay:10.37,2013-05-20 17:16:00,
2013-05-20 18:21:00,66.8,59.4,29.93,North,354,5.8,5.8,77,0.00,FEW,,0.00,355.0,WeatherDisplay:10.37,2013-05-20 17:21:00,
2013-05-20 18:26:00,66.9,59.5,29.93,NNW,342,3.5,3.5,77,0.00,FEW,,0.00,343.0,WeatherDisplay:10.37,2013-05-20 17:26:00,
2013-05-20 18:31:00,66.9,59.1,29.93,WNW,302,5.0,5.2,76,0.00,FEW,,0.00,340.0,WeatherDisplay:10.37,2013-05-20 17:31:00,
2013-05-20 18:36:00,66.9,59.5,29.93,WSW,241,10.4,10.4,77,0.00,FEW,,0.00,326.0,WeatherDisplay:10.37,2013-05-20 17:36:00,
2013-05-20 18:41:00,66.9,59.1,29.93,North,349,8.1,8.1,76,0.00,BKN,,0.00,102.0,WeatherDisplay:10.37,2013-05-20 17:41:00,
2013-05-20 18:46:00,66.1,58.7,29.93,SW,217,8.1,8.1,77,0.00,OVC,,0.00,100.0,WeatherDisplay:10.37,2013-05-20 17:46:00,
2013-05-20 18:51:00,66.1,59.0,29.94,NW,313,5.8,5.8,78,0.00,FEW,,0.00,297.0,WeatherDisplay:10.37,2013-05-20 17:51:00,
2013-05-20 18:57:00,66.3,58.9,29.94,NW,322,6.9,6.9,77,0.00,FEW,,0.00,283.0,WeatherDisplay:10.37,2013-05-20 17:57:00,
2013-05-20 19:02:00,66.1,58.7,29.94,NNW,328,10.4,10.4,77,0.00,FEW,,0.00,260.0,WeatherDisplay:10.37,2013-05-20 18:02:00,
2013-05-20 19:07:00,65.8,58.4,29.94,North,349,6.9,6.9,77,0.00,FEW,,0.00,253.0,WeatherDisplay:10.37,2013-05-20 18:07:00,
2013-05-20 19:12:00,65.5,58.1,29.94,NNW,329,8.1,8.1,77,0.00,FEW,,0.00,241.0,WeatherDisplay:10.37,2013-05-20 18:12:00,
2013-05-20 19:17:00,65.5,58.5,29.94,NNW,332,5.8,5.8,78,0.00,FEW,,0.00,229.0,WeatherDisplay:10.37,2013-05-20 18:17:00,
2013-05-20 19:22:00,65.6,58.6,29.94,NW,309,6.9,6.9,78,0.00,FEW,,0.00,216.0,WeatherDisplay:10.37,2013-05-20 18:22:00,
2013-05-20 19:27:00,65.6,58.2,29.94,NW,311,6.9,6.9,77,0.00,FEW,,0.00,206.0,WeatherDisplay:10.37,2013-05-20 18:27:00,
2013-05-20 19:32:00,65.2,57.8,29.94,NNW,333,9.2,9.2,77,0.00,FEW,,0.00,216.0,WeatherDisplay:10.37,2013-05-20 18:32:00,
2013-05-20 19:37:00,64.8,57.8,29.94,WNW,301,5.8,5.8,78,0.00,SCT,,0.00,120.0,WeatherDisplay:10.37,2013-05-20 18:37:00,
2013-05-20 19:43:00,64.5,57.5,29.95,NNW,332,11.5,11.5,78,0.00,OVC,,0.00,70.0,WeatherDisplay:10.37,2013-05-20 18:43:00,
2013-05-20 19:48:00,64.0,57.4,29.95,North,353,6.9,6.9,79,0.00,BKN,,0.00,107.0,WeatherDisplay:10.37,2013-05-20 18:48:00,
2013-05-20 19:53:00,63.9,57.3,29.95,NW,322,11.5,11.5,79,0.00,SCT,,0.00,157.0,WeatherDisplay:10.37,2013-05-20 18:53:00,
2013-05-20 19:58:00,64.0,57.7,29.95,NNW,335,4.6,4.6,80,0.00,BKN,,0.00,99.0,WeatherDisplay:10.37,2013-05-20 18:58:00,
2013-05-20 20:03:00,63.9,57.3,29.96,NNW,330,6.9,6.9,79,0.00,SCT,,0.00,113.0,WeatherDisplay:10.37,2013-05-20 19:03:00,
2013-05-20 20:08:00,63.4,57.1,29.96,NW,320,1.2,1.2,80,0.00,SCT,,0.00,97.0,WeatherDisplay:10.37,2013-05-20 19:08:00,
2013-05-20 20:13:00,63.1,56.8,29.96,NNW,330,4.0,4.0,80,0.00,BKN,,0.00,86.0,WeatherDisplay:10.37,2013-05-20 19:13:00,
2013-05-20 20:18:00,62.9,56.6,29.95,North,354,2.3,2.3,80,0.00,BKN,,0.00,84.0,WeatherDisplay:10.37,2013-05-20 19:18:00,
2013-05-20 20:23:00,62.6,56.3,29.95,WNW,301,4.6,4.6,80,0.00,SCT,,0.00,93.0,WeatherDisplay:10.37,2013-05-20 19:23:00,
2013-05-20 20:29:00,62.3,56.0,29.96,NW,320,3.5,3.5,80,0.00,BKN,,0.00,72.0,WeatherDisplay:10.37,2013-05-20 19:29:00,
2013-05-20 20:34:00,62.0,56.1,29.96,NW,308,4.6,4.6,81,0.00,SCT,,0.00,86.0,WeatherDisplay:10.37,2013-05-20 19:34:00,
2013-05-20 20:39:00,61.8,55.9,29.97,North,0,3.5,3.5,81,0.00,SCT,,0.00,62.0,WeatherDisplay:10.37,2013-05-20 19:39:00,
2013-05-20 20:44:00,61.6,55.7,29.97,NW,318,3.5,3.5,81,0.00,BKN,,0.00,53.0,WeatherDisplay:10.37,2013-05-20 19:44:00,
2013-05-20 20:49:00,61.3,55.4,29.97,North,349,2.3,2.3,81,0.00,BKN,,0.00,39.0,WeatherDisplay:10.37,2013-05-20 19:49:00,
2013-05-20 20:55:00,61.2,55.7,29.97,NW,318,3.5,3.5,82,0.00,BKN,,0.00,39.0,WeatherDisplay:10.37,2013-05-20 19:55:00,
2013-05-20 21:00:00,61.0,55.5,29.97,NNW,344,5.8,5.8,82,0.00,BKN,,0.00,35.0,WeatherDisplay:10.37,2013-05-20 20:00:00,
2013-05-20 21:05:00,60.7,55.2,29.97,NNW,328,8.1,8.1,82,0.00,OVC,,0.00,26.0,WeatherDisplay:10.37,2013-05-20 20:05:00,
2013-05-20 21:10:00,60.4,55.2,29.97,North,352,5.8,5.8,83,0.00,OVC,,0.00,21.0,WeatherDisplay:10.37,2013-05-20 20:10:00,
2013-05-20 21:15:00,60.1,54.9,29.97,NNW,344,4.6,4.6,83,0.00,OVC,,0.00,18.0,WeatherDisplay:10.37,2013-05-20 20:15:00,
2013-05-20 21:21:00,59.8,55.0,29.98,NNW,342,11.5,11.5,84,0.00,OVC,,0.00,12.0,WeatherDisplay:10.37,2013-05-20 20:21:00,
2013-05-20 21:26:00,59.5,54.7,29.98,NNW,337,6.9,6.9,84,0.00,OVC,,0.00,11.0,WeatherDisplay:10.37,2013-05-20 20:26:00,
2013-05-20 21:31:00,59.3,54.8,29.98,NNW,336,8.1,8.1,85,0.00,OVC,,0.00,9.0,WeatherDisplay:10.37,2013-05-20 20:31:00,
2013-05-20 21:36:00,59.2,54.7,29.98,North,353,8.1,8.1,85,0.00,OVC,,0.00,7.0,WeatherDisplay:10.37,2013-05-20 20:36:00,
2013-05-20 21:41:00,59.0,54.5,29.98,NNW,337,6.9,6.9,85,0.00,OVC,,0.00,5.0,WeatherDisplay:10.37,2013-05-20 20:41:00,
2013-05-20 21:46:00,59.0,54.8,29.98,NW,326,6.9,6.9,86,0.00,BKN,,0.00,0.0,WeatherDisplay:10.37,2013-05-20 20:46:00,
2013-05-20 21:52:00,58.9,54.7,29.98,NNW,330,11.5,11.5,86,0.00,OVC,,0.00,0.0,WeatherDisplay:10.37,2013-05-20 20:52:00,
2013-05-20 21:57:00,58.9,54.7,29.98,NNW,332,5.8,5.8,86,0.00,OVC,,0.00,0.0,WeatherDisplay:10.37,2013-05-20 20:57:00,
2013-05-20 22:02:00,58.7,54.5,29.98,NNW,333,10.4,10.4,86,0.00,CLR,,0.00,0.0,WeatherDisplay:10.37,2013-05-20 21:02:00,
2013-05-20 22:07:00,58.6,54.4,29.98,NNW,339,2.3,2.3,86,0.00,CLR,,0.00,0.0,WeatherDisplay:10.37,2013-05-20 21:07:00,
2013-05-20 22:12:00,58.4,54.2,29.99,NNW,337,3.0,3.0,86,0.00,CLR,,0.00,0.0,WeatherDisplay:10.37,2013-05-20 21:12:00,
2013-05-20 22:18:00,58.3,54.1,29.99,NNW,339,3.5,3.5,86,0.00,CLR,,0.00,0.0,WeatherDisplay:10.37,2013-05-20 21:18:00,
2013-05-20 22:23:00,58.1,53.9,29.99,NNW,339,3.5,3.5,86,0.00,CLR,,0.00,0.0,WeatherDisplay:10.37,2013-05-20 21:23:00,
2013-05-20 22:28:00,58.1,54.2,29.99,NW,325,4.6,4.6,87,0.00,CLR,,0.00,0.0,WeatherDisplay:10.37,2013-05-20 21:28:00,
2013-05-20 22:33:00,58.1,54.2,29.99,NNW,343,5.8,5.8,87,0.00,CLR,,0.00,0.0,WeatherDisplay:10.37,2013-05-20 21:33:00,
2013-05-20 22:38:00,58.1,54.2,29.99,North,352,5.8,5.8,87,0.00,CLR,,0.00,0.0,WeatherDisplay:10.37,2013-05-20 21:38:00,
2013-05-20 22:43:00,58.1,54.2,29.99,NNW,328,5.8,5.8,87,0.00,CLR,,0.00,0.0,WeatherDisplay:10.37,2013-05-20 21:43:00,
2013-05-20 22:48:00,58.1,53.9,30.00,NNW,347,6.9,6.9,86,0.00,CLR,,0.00,0.0,WeatherDisplay:10.37,2013-05-20 21:48:00,
2013-05-20 22:54:00,58.1,53.9,30.00,NNW,342,6.9,6.9,86,0.00,CLR,,0.00,0.0,WeatherDisplay:10.37,2013-05-20 21:54:00,
2013-05-20 22:59:00,58.0,53.8,30.00,NNW,337,9.2,9.2,86,0.00,CLR,,0.00,0.0,WeatherDisplay:10.37,2013-05-20 21:59:00,
2013-05-20 23:04:00,58.0,53.8,30.00,NNW,347,8.1,8.1,86,0.00,CLR,,0.00,0.0,WeatherDisplay:10.37,2013-05-20 22:04:00,
2013-05-20 23:09:00,57.8,53.6,30.00,NNW,329,5.0,5.0,86,0.00,CLR,,0.00,0.0,WeatherDisplay:10.37,2013-05-20 22:09:00,
2013-05-20 23:14:00,57.6,53.4,30.00,North,350,6.9,6.9,86,0.00,CLR,,0.00,0.0,WeatherDisplay:10.37,2013-05-20 22:14:00,
2013-05-20 23:19:00,57.5,53.3,30.00,NNW,342,12.7,12.7,86,0.00,CLR,,0.00,0.0,WeatherDisplay:10.37,2013-05-20 22:19:00,
2013-05-20 23:25:00,57.3,52.8,30.00,North,352,5.8,5.8,85,0.00,CLR,,0.00,0.0,WeatherDisplay:10.37,2013-05-20 22:25:00,
2013-05-20 23:30:00,57.3,52.8,30.00,NNW,343,5.0,13.0,85,0.00,CLR,,0.00,0.0,WeatherDisplay:10.37,2013-05-20 22:30:00,
2013-05-20 23:35:00,57.2,52.7,30.00,North,359,6.9,6.9,85,0.00,CLR,,0.00,0.0,WeatherDisplay:10.37,2013-05-20 22:35:00,
2013-05-20 23:40:00,57.2,52.4,30.01,NNW,347,5.8,5.8,84,0.00,CLR,,0.00,0.0,WeatherDisplay:10.37,2013-05-20 22:40:00,
2013-05-20 23:45:00,57.0,52.5,30.01,North,349,7.0,7.0,85,0.00,CLR,,0.00,0.0,WeatherDisplay:10.37,2013-05-20 22:45:00,
2013-05-20 23:51:00,57.0,52.5,30.01,NNW,336,6.9,6.9,85,0.00,CLR,,0.00,0.0,WeatherDisplay:10.37,2013-05-20 22:51:00,
2013-05-20 23:56:00,56.9,52.4,30.01,NNW,347,5.8,5.8,85,0.00,CLR,,0.00,0.0,WeatherDisplay:10.37,2013-05-20 22:56:00,